GEFSGL_500_meanwind_006.txt.gz
Wind_Speed
38 37 35 34 34 35 36 38 39 40 41 40 40 40 38 36 31 26 23 21 22 22 22 22 21 22 26 29 30 32 32 31 30 26 24 21 22 24 26 27 29 29 29
38 38 37 34 32 32 32 32 33 34 34 35 34 32 31 28 23 19 17 17 17 20 21 23 26 28 29 29 28 26 23 20 17 15 17 20 22 24 25 26 27 27 28
40 39 39 36 32 30 29 28 28 27 28 28 27 26 25 22 20 18 18 18 16 16 17 18 19 20 22 21 20 18 16 14 15 18 19 21 22 24 25 25 25 26 27
40 39 39 38 33 29 27 26 25 23 22 21 22 21 19 19 19 20 21 20 18 17 16 15 14 14 15 15 16 15 14 16 18 20 20 20 22 23 24 24 26 26 28
39 38 38 38 34 29 26 25 23 20 19 19 19 18 16 16 18 20 21 21 20 19 17 15 14 13 13 14 15 15 16 18 19 20 20 20 21 22 24 26 27 29 30
40 38 36 37 34 29 26 24 22 20 17 17 16 15 14 12 14 16 16 16 16 16 16 15 14 13 12 13 14 15 15 17 18 19 20 20 21 23 25 27 27 28 29
40 38 36 35 33 29 27 25 23 20 18 16 15 14 13 12 10 12 13 14 15 16 16 15 15 14 14 14 14 14 15 15 16 18 19 20 21 22 22 22 22 24 26
40 38 35 33 32 28 27 26 24 21 18 16 15 15 15 13 11 11 13 14 15 16 16 16 15 14 14 14 14 13 13 13 13 14 15 15 16 16 18 20 24 27 30
40 38 36 33 30 28 26 25 23 21 19 17 16 15 15 14 13 12 12 13 13 14 14 13 11 11 11 12 12 11 11 10 9 9 10 13 15 18 21 24 27 30 33
43 39 37 34 31 29 28 25 23 22 20 17 16 15 16 16 14 11 10 11 11 11 11 10 9 9 9 9 9 9 7 6 7 8 11 14 18 21 25 28 30 32 34
48 43 41 37 32 30 28 25 23 21 20 18 17 16 17 17 16 14 13 12 11 10 9 10 10 9 9 8 8 7 7 7 8 9 13 17 20 23 25 27 27 28 28
51 45 40 37 33 30 28 26 24 22 20 18 16 15 14 14 15 16 17 15 12 10 10 11 11 10 10 8 7 7 7 6 8 11 14 17 20 21 23 23 24 24 24
54 51 45 38 34 32 30 28 26 23 20 18 15 14 12 11 13 15 17 16 14 12 11 12 12 11 10 9 8 8 7 6 7 11 14 17 19 21 22 22 22 22 21
56 54 48 42 37 35 33 31 27 24 21 18 16 14 13 13 13 14 15 16 15 13 13 13 13 11 10 9 8 8 7 6 7 10 14 17 19 20 21 21 21 21 21
56 56 51 44 39 37 36 33 30 26 23 21 19 17 15 14 14 14 15 15 15 15 14 12 12 11 10 9 8 8 7 6 7 9 12 16 18 20 22 23 24 24 23
52 56 52 46 41 39 37 34 32 28 25 24 23 20 18 16 15 14 14 14 15 15 14 13 13 12 11 9 9 9 8 7 7 8 10 14 17 19 22 24 26 27 27
48 53 52 48 44 40 37 35 33 30 27 27 26 23 20 17 16 16 15 14 14 14 13 12 12 11 10 10 11 11 9 9 8 8 9 11 14 17 20 23 26 28 30
44 50 51 50 47 41 37 36 34 31 29 29 28 26 24 20 18 16 14 14 12 11 11 10 10 10 10 11 13 13 12 11 10 8 8 9 12 15 18 22 26 29 31
41 47 49 50 46 41 38 36 35 33 31 30 30 28 26 23 19 17 16 15 13 12 11 11 11 10 11 13 15 16 16 14 12 10 9 8 9 12 16 21 25 29 32
38 44 47 46 43 40 38 38 37 35 32 30 29 28 26 24 21 19 18 17 16 15 14 14 14 13 13 14 16 18 18 17 15 14 13 11 10 12 16 21 25 28 30
37 43 45 45 43 41 40 39 39 36 33 30 29 28 27 26 23 21 19 18 18 17 17 16 17 16 15 15 17 19 19 19 18 17 17 17 16 17 19 22 24 26 29
38 42 43 42 42 41 41 40 39 36 34 32 30 29 28 26 24 21 18 17 19 19 18 18 17 17 15 15 17 19 20 19 19 20 20 21 22 22 21 22 23 25 29
38 39 40 40 40 40 40 39 38 35 32 30 28 27 26 24 21 18 17 18 19 19 18 17 17 16 15 15 16 18 19 20 21 21 22 23 23 22 20 20 21 24 29
37 36 38 38 39 37 37 37 37 34 31 28 26 25 24 21 18 16 16 17 17 17 16 16 16 15 14 14 16 17 18 19 20 22 22 22 21 19 18 18 20 24 28
37 37 37 36 35 33 33 36 37 35 32 28 26 26 23 19 16 16 16 16 15 15 15 15 14 13 13 14 15 16 17 18 20 20 20 19 19 19 19 20 22 25 29
37 37 36 35 32 30 31 34 36 35 33 30 27 25 21 18 17 17 15 14 13 14 14 14 13 13 13 13 14 15 16 17 17 17 16 17 18 19 20 22 24 27 30

GEFSGL_500_meanwind_012.txt.gz
Wind_Speed
37 37 39 40 41 41 40 39 38 38 39 39 37 33 31 30 30 29 30 31 32 33 33 32 31 30 30 29 28 27 26 25 24 25 25 25 26 29 31 33 34 33 35
41 40 40 42 42 41 40 39 38 38 38 38 37 33 31 29 27 26 26 26 27 27 27 27 27 26 25 25 26 26 26 27 26 26 26 27 28 30 31 31 30 28 28
46 45 43 43 42 41 40 39 38 38 38 37 35 33 30 28 27 25 24 23 22 22 22 23 24 24 24 25 27 27 28 29 28 28 27 28 28 27 25 24 22 22 21
52 50 47 44 43 43 42 41 39 38 38 37 34 32 30 28 26 25 23 21 20 20 20 21 23 24 25 27 29 29 29 29 28 26 25 23 22 20 18 17 17 18 20
58 56 51 48 46 45 45 44 42 40 39 37 34 32 30 28 26 24 22 20 19 19 20 20 21 23 24 25 26 26 25 23 22 20 18 17 16 15 15 15 16 17 19
60 58 55 54 52 50 49 47 46 43 40 38 34 32 29 28 25 23 21 18 18 19 20 20 20 20 21 20 19 18 17 16 15 16 17 16 15 14 14 14 15 16 19
64 64 63 61 59 57 54 51 47 45 42 39 35 32 29 27 25 23 21 18 18 19 19 19 19 18 17 17 16 16 16 16 16 16 15 14 13 12 13 14 15 17 18
73 72 71 69 65 62 58 53 49 46 43 41 36 32 29 26 24 22 20 18 18 19 18 17 17 16 16 16 16 16 15 15 14 13 12 11 11 11 12 13 14 15 17
79 77 75 71 67 63 59 55 51 48 45 42 37 32 29 26 24 21 19 18 17 17 17 16 16 15 16 16 15 15 15 13 12 10 10 9 9 10 10 12 13 15 17
79 75 70 65 60 57 55 53 51 49 46 43 39 33 29 27 23 21 18 17 16 15 14 14 14 14 14 15 15 14 13 12 11 10 9 8 8 8 9 10 12 13 14
68 61 54 48 45 44 45 47 48 47 46 43 39 34 30 27 24 21 19 18 15 14 13 13 13 13 14 14 14 13 12 12 11 10 8 7 6 5 6 8 9 10 11
44 38 35 32 31 34 36 40 44 45 44 42 40 35 31 28 24 21 19 18 16 14 14 14 15 15 14 13 13 13 13 12 11 9 8 6 4 4 4 5 6 7 9
30 28 27 28 29 30 33 37 41 43 41 41 40 35 32 28 25 22 20 19 18 17 15 15 15 15 14 13 14 14 14 13 11 9 7 5 4 3 3 3 4 6 9
29 29 30 31 31 31 32 34 40 44 40 39 39 35 32 28 24 21 20 19 19 19 17 16 15 15 14 14 15 15 14 13 12 10 8 7 6 4 3 1 3 6 9
36 34 34 34 33 32 31 32 38 45 43 40 38 35 31 27 24 22 20 19 20 20 19 17 15 15 16 15 15 14 14 13 12 11 10 8 7 6 4 3 3 5 8
40 39 37 35 34 33 30 31 37 44 44 41 39 35 31 29 27 24 22 20 20 20 19 17 16 16 16 16 15 14 14 13 13 13 11 10 8 7 6 5 4 5 8
40 38 37 35 33 31 29 29 37 43 44 42 40 37 34 31 28 26 23 21 21 20 18 17 17 17 17 16 15 15 15 15 15 14 13 11 9 8 7 6 6 7 9
39 37 35 32 31 29 27 28 35 40 43 42 40 38 35 32 30 28 24 22 20 19 18 18 17 17 16 16 16 16 16 16 16 16 15 13 11 10 9 9 10 11 12
36 34 32 30 29 27 26 27 34 39 43 43 41 37 34 33 32 29 25 22 20 19 18 17 17 16 15 15 16 16 16 16 17 17 16 16 15 13 13 14 15 16 16
32 32 31 29 27 26 26 29 36 41 44 42 41 37 34 32 30 26 24 22 20 18 17 16 15 15 14 14 15 15 15 15 17 18 19 19 19 18 18 18 19 20 20
28 29 29 27 26 26 27 33 38 41 43 42 39 35 32 31 29 26 24 22 20 18 17 15 14 14 14 14 15 15 16 17 18 20 21 22 22 22 23 23 23 23 22
24 25 26 26 27 28 32 37 41 43 41 41 38 35 33 32 31 28 25 23 20 18 17 15 15 15 15 16 17 17 18 19 20 21 22 22 23 24 25 25 25 24 22
21 23 25 27 29 32 36 40 42 42 42 40 37 34 32 30 28 27 25 23 20 18 16 16 17 18 18 18 18 18 19 21 21 22 22 22 23 24 25 26 25 24 23
19 24 28 31 34 37 40 41 41 40 40 38 34 31 29 28 26 25 24 21 18 17 16 17 18 19 20 20 20 20 20 21 21 21 21 22 23 24 25 25 24 23 22
26 32 36 38 39 41 41 40 38 37 36 34 32 29 27 25 24 23 21 19 17 16 16 17 18 19 20 20 20 20 20 19 20 20 21 22 22 23 23 22 22 21 21
37 40 41 43 43 41 39 37 35 33 32 31 29 26 24 23 22 20 19 17 16 15 15 16 17 18 18 19 18 17 17 17 17 18 19 20 21 21 20 19 19 19 20

GEFSGL_500_meanwind_018.txt.gz
Wind_Speed
50 49 48 46 45 43 42 41 39 37 34 31 29 28 27 27 28 29 30 30 29 28 27 26 25 26 29 31 32 34 35 35 35 35 36 34 32 30 29 28 29 29 29
55 55 54 52 50 49 47 46 43 40 37 34 31 29 28 27 28 29 30 31 30 29 27 25 24 24 25 27 30 31 32 33 33 34 34 33 31 30 30 28 28 27 27
60 61 61 59 57 55 53 50 48 45 41 37 35 32 30 29 29 30 30 31 31 29 28 26 24 23 23 24 26 27 29 30 30 31 32 32 31 31 31 31 29 27 27
65 66 66 66 64 62 59 56 54 50 45 41 38 36 34 33 32 32 32 31 31 30 28 26 24 22 21 21 23 24 26 28 28 29 30 30 31 30 30 29 27 26 25
71 72 73 72 72 71 68 64 60 55 50 44 41 38 37 36 35 34 33 32 31 30 28 26 24 21 20 20 21 23 25 26 27 27 28 27 29 29 28 27 26 24 22
75 76 76 74 73 73 72 68 63 58 52 48 44 42 41 39 38 37 35 34 32 30 28 26 24 21 19 21 23 24 25 26 27 27 28 29 30 29 28 25 22 20 18
83 83 82 80 77 74 71 67 64 60 56 52 48 47 45 43 41 39 38 35 33 31 28 26 24 22 21 21 23 24 26 28 29 28 29 28 27 24 22 19 18 16 15
86 88 89 89 86 84 82 79 75 71 66 61 57 53 50 47 44 41 39 36 34 32 29 27 25 22 21 21 22 24 25 26 28 28 27 25 22 19 18 17 17 16 14
68 71 74 77 78 79 79 79 77 75 71 65 60 56 52 48 45 42 40 37 35 33 30 28 25 22 22 21 22 23 24 25 25 24 23 20 19 18 18 16 15 14 13
47 50 52 53 54 57 60 63 65 66 65 62 58 53 49 47 45 43 40 39 36 34 31 28 26 23 22 22 21 23 23 23 22 21 21 20 19 18 16 15 14 13 13
38 38 38 38 38 40 42 45 49 53 55 55 54 51 49 47 46 44 41 39 37 34 32 29 26 24 22 22 22 23 22 22 21 21 20 19 18 16 15 14 13 12 11
39 37 34 32 31 30 30 32 35 39 44 49 51 51 51 48 46 44 42 40 37 34 31 28 26 24 23 23 23 23 22 21 20 20 18 17 16 15 14 13 12 10 9
41 38 36 33 30 28 27 28 29 31 35 41 47 50 53 50 46 44 43 40 37 33 31 28 25 24 24 24 24 23 23 22 21 19 18 16 15 14 13 12 11 10 10
43 40 37 34 30 27 25 24 23 24 25 29 37 44 51 49 46 45 42 40 35 32 29 27 25 23 24 24 23 23 23 22 20 19 17 16 15 14 13 13 12 11 10
42 40 38 34 30 26 24 23 21 21 20 22 27 34 44 46 44 42 39 37 34 31 29 27 25 24 25 24 23 23 23 22 20 18 17 16 15 14 13 13 12 12 11
39 38 36 34 31 28 25 24 23 22 21 21 23 27 36 42 42 41 39 36 34 32 30 28 26 25 25 23 22 22 22 21 20 18 17 16 16 15 14 14 13 14 13
35 34 33 33 32 30 28 27 26 25 23 22 23 25 31 38 40 40 38 37 34 32 30 28 27 26 25 24 23 22 22 21 19 18 18 17 17 16 16 15 16 16 16
29 29 30 31 32 31 29 28 27 26 24 23 24 26 29 35 40 40 39 36 34 32 30 29 28 27 26 24 23 22 21 20 19 18 18 18 18 18 18 18 18 19 19
21 22 25 27 29 30 29 28 26 25 24 22 24 28 32 37 42 42 39 36 33 31 30 30 28 27 26 25 23 22 21 20 20 19 19 19 19 20 20 20 21 21 22
12 16 21 24 27 28 28 27 26 24 24 23 25 31 36 41 44 42 39 36 33 32 31 30 28 26 25 24 23 21 20 20 19 19 20 20 20 20 21 22 23 24 25
8 14 19 23 26 27 27 26 24 24 24 25 30 35 37 41 41 38 35 33 32 31 30 29 27 26 25 23 21 20 19 19 19 19 19 20 20 21 22 23 24 26 26
9 14 20 24 26 26 26 24 24 24 26 29 34 37 40 41 38 35 33 32 31 30 29 27 26 25 23 22 20 19 18 18 18 19 19 20 20 21 22 24 25 25 26
13 18 22 25 27 27 25 24 25 28 30 33 37 39 40 39 36 35 33 32 31 29 27 26 24 23 21 20 18 17 17 17 17 18 19 20 20 21 21 22 23 23 24
20 24 27 28 27 26 26 27 30 32 34 36 38 40 39 37 36 34 32 30 29 27 25 24 22 20 19 18 17 16 16 16 16 17 18 19 20 20 21 21 22 22 23
26 28 29 28 29 30 31 32 33 36 37 37 39 38 36 35 33 31 30 28 26 25 23 21 19 17 16 15 15 15 15 16 16 17 18 18 19 20 20 21 21 22 22
32 33 34 34 34 34 35 36 37 37 37 37 37 35 33 31 30 29 27 25 23 22 20 18 16 15 14 14 15 15 15 15 15 16 17 17 18 19 20 21 21 22 22

GEFSGL_500_meanwind_024.txt.gz
Wind_Speed
60 60 60 60 60 59 58 57 56 54 51 49 47 45 44 42 41 40 38 36 34 33 31 29 27 25 24 23 22 21 21 20 21 23 25 27 28 29 29 28 28 29 28
65 65 65 65 64 64 64 63 62 60 58 55 52 50 47 45 44 43 41 39 36 34 32 30 28 26 24 23 21 20 20 20 20 21 24 26 27 28 28 29 29 28 28
69 68 68 68 68 68 67 67 66 65 64 62 59 56 52 49 47 46 44 42 39 37 35 32 30 28 25 23 21 20 19 19 19 20 23 25 26 26 27 27 26 26 25
75 75 74 74 74 73 72 71 70 69 67 65 64 61 57 54 52 49 47 45 42 40 37 35 32 29 26 23 21 20 19 19 19 19 21 23 24 24 25 26 25 24 24
72 73 74 75 77 78 78 78 77 75 73 71 68 65 63 60 57 54 51 48 45 42 40 37 34 30 27 24 21 19 18 18 18 19 20 22 23 24 24 25 25 26 24
51 51 53 56 60 65 71 76 78 80 80 78 75 72 69 65 62 59 55 52 49 45 42 39 35 31 27 24 21 20 19 18 19 18 19 20 22 23 23 23 24 25 24
41 41 41 41 42 43 47 53 60 67 73 77 79 78 75 71 66 62 57 55 52 48 44 41 36 32 28 25 22 21 20 18 18 18 19 21 22 24 24 24 24 24 23
43 42 42 41 40 39 39 40 43 48 54 62 69 74 76 75 70 65 60 57 52 49 46 43 38 33 29 26 24 22 21 19 18 18 19 21 22 22 22 23 23 23 22
46 46 45 43 42 41 39 37 37 38 40 45 51 59 65 69 71 68 62 57 51 49 46 43 39 34 30 27 25 23 22 21 20 19 20 20 21 23 23 23 23 22 20
48 47 45 45 44 43 41 40 39 39 37 36 39 44 51 56 61 64 63 56 51 49 44 41 38 34 31 29 27 25 23 22 20 19 19 20 21 22 22 21 21 20 18
49 48 46 45 43 42 40 39 38 37 36 34 33 35 40 45 51 56 58 55 51 49 45 41 37 35 32 31 29 27 25 23 21 20 19 20 21 21 21 20 19 18 16
48 46 45 43 42 41 39 37 36 35 33 31 31 30 32 36 43 50 53 53 49 46 44 41 36 34 33 31 29 28 27 25 22 21 20 20 20 20 21 21 19 17 16
47 44 42 41 40 39 37 35 33 32 31 30 28 27 28 30 35 44 51 53 51 47 44 40 36 34 33 31 30 28 27 24 22 21 20 19 20 20 20 19 17 16 16
43 41 41 40 38 36 33 32 31 30 29 28 27 26 26 29 31 38 47 52 50 47 44 42 39 36 34 32 29 27 26 24 21 20 19 19 19 19 19 17 17 16 16
40 37 37 35 33 31 29 29 28 27 26 25 24 24 24 26 29 34 42 51 49 47 45 42 39 36 33 30 28 26 25 23 21 20 19 19 18 18 18 17 18 18 17
34 33 31 30 28 27 26 24 24 23 22 21 20 21 21 21 25 31 40 49 49 47 44 41 38 35 31 29 27 26 24 22 21 21 20 20 19 19 19 19 19 18 17
27 26 25 24 22 20 19 19 18 18 17 16 16 16 17 18 22 29 38 46 48 45 43 40 37 34 31 29 27 25 24 22 22 22 21 21 20 20 20 19 19 17 16
20 19 17 15 14 14 15 15 15 15 14 12 11 12 14 17 20 27 35 43 45 42 42 39 35 32 29 27 26 24 23 23 23 23 22 21 21 21 20 20 18 17 15
13 10 8 7 9 13 14 15 15 14 12 11 10 11 13 15 19 26 34 40 41 39 38 36 33 31 29 27 25 24 24 24 24 24 22 21 21 21 21 19 18 16 15
8 3 3 7 11 13 15 15 15 13 11 9 9 11 13 14 20 28 35 39 39 37 35 33 31 30 28 26 25 25 25 24 24 23 22 21 21 21 20 19 17 16 16
13 11 11 12 13 14 14 14 13 11 11 10 10 11 14 18 25 30 34 35 36 34 32 31 29 28 26 26 26 25 25 24 23 22 21 21 20 20 19 18 17 17 18
20 18 17 16 14 13 13 14 13 11 11 10 11 14 19 23 27 31 33 34 34 32 30 28 27 27 26 26 25 25 24 23 22 21 20 20 19 18 18 18 18 18 19
22 20 19 17 15 15 14 13 13 12 12 13 16 19 22 26 28 32 33 33 32 29 27 26 26 25 25 24 23 23 22 21 20 19 19 18 18 18 18 18 18 20 21
25 22 20 19 18 17 16 15 15 16 17 18 20 22 26 28 31 32 33 32 29 26 24 24 24 24 23 22 21 20 19 18 18 17 17 18 18 18 18 19 20 21 22
25 24 22 20 19 18 18 17 17 18 19 21 24 27 29 30 31 31 30 28 25 24 24 23 22 21 20 19 18 17 16 16 16 16 16 17 18 19 19 20 21 22 22
27 26 24 23 21 20 20 20 21 21 23 25 28 29 30 30 28 28 26 24 23 22 22 20 19 18 17 16 15 14 14 15 15 16 16 17 18 19 20 21 21 22 22

GEFSGL_500_meanwind_030.txt.gz
Wind_Speed
65 63 62 61 61 61 61 60 59 58 58 58 57 56 55 54 51 50 47 45 44 43 42 40 38 35 33 31 29 28 25 23 21 22 21 21 20 21 23 24 25 26 26
66 63 60 58 57 58 60 62 64 63 63 62 62 62 61 60 59 57 54 51 49 47 45 43 41 39 36 34 32 30 27 24 22 22 22 21 21 21 22 24 25 26 26
58 55 52 49 48 48 50 54 59 63 66 67 67 66 65 65 63 61 59 56 54 51 49 46 44 41 38 36 34 32 29 26 23 23 23 21 21 20 21 23 24 25 25
53 51 48 45 43 41 41 42 46 52 59 64 68 70 70 70 68 65 63 60 57 55 52 49 47 44 41 39 36 34 32 29 25 24 23 21 20 20 21 22 23 24 23
53 51 49 47 44 41 39 39 39 41 45 52 59 65 69 71 72 70 67 64 60 57 55 52 49 46 43 40 38 36 33 30 27 25 23 22 20 20 20 20 21 21 21
53 52 51 50 47 45 43 42 41 40 39 40 44 50 58 64 69 72 71 68 64 60 57 54 51 48 45 42 40 37 35 31 28 25 24 22 21 20 19 19 20 20 20
54 53 52 52 50 48 47 45 42 41 39 38 37 39 43 50 58 64 69 70 67 63 59 56 52 49 46 44 42 39 36 33 29 26 24 22 20 19 18 19 19 19 19
55 55 54 53 51 50 49 48 46 44 42 41 39 37 36 38 42 49 57 63 65 65 62 58 54 51 48 45 43 40 37 34 30 27 24 22 21 20 19 19 19 19 19
55 54 53 52 50 49 48 46 45 44 43 42 40 38 36 34 34 37 42 49 56 60 62 61 57 52 49 46 44 41 38 34 31 28 26 23 21 20 19 19 19 19 19
54 52 51 51 49 47 45 44 42 42 41 41 39 38 36 34 33 33 35 39 45 52 57 59 58 54 50 47 44 41 38 35 31 29 26 24 21 19 19 19 19 19 19
52 49 48 48 46 45 43 41 39 39 38 38 38 37 36 35 34 33 33 34 38 44 50 55 57 55 51 48 44 42 39 36 33 30 27 24 21 19 19 18 18 18 19
45 43 42 41 40 40 38 37 37 36 35 35 35 35 35 35 34 33 33 32 34 38 44 49 53 54 51 48 45 43 40 37 34 31 27 24 22 20 19 18 17 17 17
38 35 33 31 31 32 32 32 32 32 32 32 32 31 32 32 32 32 32 32 33 36 41 46 50 51 49 47 44 42 39 37 34 31 27 24 22 20 18 18 18 18 17
32 27 24 22 21 22 24 26 26 26 27 28 29 29 28 28 28 29 29 31 31 34 40 45 49 50 47 45 43 40 38 35 33 30 27 24 22 19 18 18 19 19 19
27 21 17 14 13 13 15 17 19 20 22 23 24 26 26 26 26 26 26 28 31 33 40 46 50 51 47 45 42 40 38 35 32 28 25 23 21 20 20 20 20 20 20
26 20 14 8 5 6 8 11 13 15 17 18 20 22 23 24 24 25 25 27 30 33 39 47 51 50 48 45 43 40 37 33 30 27 24 23 21 21 20 20 21 20 20
28 22 16 10 6 2 2 5 7 10 12 14 16 17 18 20 22 23 25 26 28 32 40 50 51 49 48 46 43 40 35 32 29 26 24 23 22 21 21 21 21 21 21
29 24 20 16 12 8 6 4 5 7 9 11 12 14 15 16 18 21 24 25 27 31 40 49 50 49 47 44 41 39 35 31 28 26 24 23 22 21 21 21 22 22 23
30 26 22 19 16 14 11 9 7 5 5 6 8 10 11 13 16 18 21 23 26 31 39 48 49 49 48 44 40 37 34 30 28 26 25 23 22 22 22 23 23 23 24
31 27 23 20 18 16 14 11 9 8 6 5 5 7 9 11 14 17 19 23 26 31 39 45 47 48 45 41 38 35 32 30 28 26 25 24 23 23 23 24 25 25 25
31 28 24 21 18 16 14 12 10 9 8 7 7 8 10 14 18 19 20 22 25 31 37 41 43 43 42 39 36 33 31 29 28 26 25 24 24 24 25 26 26 26 25
31 28 25 22 19 17 15 13 12 11 11 10 10 12 15 18 20 21 22 24 28 33 37 38 39 38 37 35 33 31 30 29 27 25 25 24 25 25 26 26 26 25 25
30 28 25 24 22 20 19 17 16 16 15 15 16 18 19 21 23 24 26 27 31 34 35 35 35 35 34 32 30 29 28 27 26 25 25 25 25 25 25 25 25 25 25
31 28 26 24 22 21 20 19 19 18 18 19 20 21 24 25 26 28 29 31 32 32 32 32 32 30 29 28 27 27 27 26 25 25 24 24 24 24 24 24 24 25 25
32 29 26 24 23 22 21 21 21 21 21 22 24 26 28 29 29 30 30 30 30 30 29 30 29 28 27 26 25 25 24 23 23 23 22 22 22 22 22 22 23 23 24
30 29 26 25 24 23 22 22 22 23 24 24 25 27 29 29 29 28 28 28 27 27 27 27 26 25 24 24 23 22 22 21 21 20 20 20 20 20 21 21 22 23 24

GEFSGL_500_meanwind_036.txt.gz
Wind_Speed
45 44 43 43 44 44 45 46 47 50 53 57 61 63 64 63 61 60 58 56 54 51 49 48 47 46 44 42 40 38 35 33 31 29 27 25 23 22 21 19 18 18 19
47 48 48 48 48 47 46 46 47 49 51 53 57 62 65 67 67 66 64 62 60 57 55 53 51 50 48 46 43 41 38 36 34 31 29 27 25 23 21 20 19 18 19
53 54 54 53 52 51 50 48 47 47 49 51 53 56 61 65 68 69 69 67 65 63 60 58 55 54 52 49 47 45 42 39 36 34 31 28 26 24 22 20 19 19 20
58 58 58 57 56 56 55 53 51 50 49 49 51 53 55 59 63 67 70 71 70 68 65 62 59 56 54 52 51 48 45 42 39 36 33 31 28 26 24 21 20 20 20
60 61 62 62 62 61 59 56 54 53 52 50 50 51 52 53 55 59 64 69 71 71 69 66 63 60 56 54 53 51 48 45 42 39 35 32 29 27 24 22 20 20 20
62 63 63 63 62 60 58 55 53 52 52 51 49 49 49 49 49 50 54 60 66 70 71 69 66 64 60 57 55 53 50 47 43 40 37 33 31 28 25 23 21 20 20
64 63 62 61 59 55 52 50 49 48 49 49 48 48 47 48 47 46 46 49 54 62 68 68 67 67 64 57 55 54 52 49 46 42 38 35 33 30 27 24 22 21 21
63 61 59 57 54 50 46 45 43 43 44 46 47 47 46 46 46 45 44 43 45 49 57 63 65 65 65 63 58 54 52 49 46 44 40 37 34 31 28 25 23 21 21
60 58 56 53 48 43 40 38 38 38 39 42 43 45 45 45 45 45 44 42 41 42 46 52 58 61 61 61 58 55 52 50 47 44 41 38 36 33 29 26 23 21 20
57 54 51 47 41 37 33 30 31 33 35 37 39 41 42 44 44 44 43 41 39 39 40 44 49 55 58 58 57 55 53 51 49 45 42 39 36 33 30 27 25 23 21
53 50 47 42 36 30 25 22 22 25 29 32 34 36 38 40 42 42 42 41 39 37 36 38 42 47 52 55 56 55 52 50 49 46 43 40 37 33 31 28 26 24 23
50 47 43 38 31 25 20 16 15 18 22 26 30 32 33 35 37 39 40 40 38 36 35 35 37 41 46 51 55 56 54 51 49 47 44 41 38 34 31 29 27 26 25
48 45 40 35 29 24 19 13 10 13 17 20 24 27 29 31 33 34 36 37 36 34 33 34 35 37 42 48 53 55 54 51 48 47 44 41 37 34 32 30 28 26 25
45 42 39 35 30 25 19 12 6 7 12 16 19 23 25 28 29 30 32 33 33 33 31 31 32 35 38 44 51 54 52 51 48 45 43 41 38 36 33 31 29 27 25
42 40 38 34 31 27 21 15 8 3 5 10 15 19 22 24 26 28 30 31 32 32 30 29 30 33 37 41 47 51 52 50 48 46 43 41 39 37 34 31 29 27 26
40 37 36 34 31 27 23 18 13 7 1 4 9 14 17 20 23 26 27 29 30 31 29 28 29 32 37 40 45 50 51 49 47 45 42 40 38 36 33 31 29 27 26
38 36 33 32 30 27 24 20 15 10 5 0 5 9 13 17 20 23 25 27 29 29 29 28 30 33 36 39 44 49 51 50 47 45 42 40 37 36 34 31 29 28 26
38 35 33 30 29 27 24 21 17 12 8 3 2 6 10 14 18 21 23 25 26 27 28 29 31 34 36 39 45 50 50 48 46 44 41 39 37 34 33 31 30 29 28
36 34 33 30 28 26 23 21 18 14 10 6 1 3 7 11 15 18 20 22 24 25 27 30 31 33 37 40 47 51 49 47 45 41 39 37 36 34 33 31 30 29 28
36 34 32 30 28 26 23 21 19 15 12 8 4 1 4 7 11 15 17 19 21 22 25 27 28 32 36 41 46 50 47 45 43 40 38 36 35 34 32 30 29 28 28
36 33 31 30 28 26 25 22 19 17 15 11 7 5 3 5 8 12 15 17 18 20 22 24 27 32 37 42 46 47 45 43 41 38 37 35 33 32 30 30 29 28 27
35 34 31 29 28 27 26 23 21 19 16 14 12 9 8 8 9 12 15 15 18 20 21 23 26 32 35 40 43 43 43 41 39 37 35 33 32 30 29 28 27 26 25
33 32 31 29 27 27 26 24 23 21 18 16 15 14 13 13 14 16 18 19 20 20 21 22 26 31 35 38 39 39 39 38 36 34 32 31 30 28 27 26 25 24 24
31 31 30 29 28 26 25 24 24 23 21 20 19 18 18 18 18 19 21 22 23 24 25 26 28 31 33 35 37 36 35 35 33 31 30 29 27 26 25 24 24 23 24
28 28 28 27 27 26 26 24 23 23 22 21 21 22 22 22 22 23 24 25 25 26 27 28 29 30 31 33 33 32 31 30 29 28 26 25 24 23 23 22 22 22 22
25 25 26 26 25 25 25 25 23 23 24 24 23 24 24 24 24 24 24 25 26 27 27 28 28 28 29 28 28 27 26 25 24 23 22 22 21 21 21 20 20 21 21

GEFSGL_500_meanwind_042.txt.gz
Wind_Speed
40 40 40 42 44 45 46 48 49 50 50 51 51 51 53 56 58 58 59 61 61 59 56 55 53 51 49 49 48 47 45 43 41 38 36 33 30 27 24 22 19 18 18
42 42 43 45 47 48 50 51 52 53 54 54 55 55 55 57 59 61 62 64 65 65 62 60 58 54 53 51 50 49 48 46 44 42 39 36 33 30 27 24 21 19 18
43 45 46 48 50 52 53 55 56 57 57 58 58 59 59 59 60 61 64 66 67 68 67 66 63 60 56 54 53 51 50 49 47 45 42 39 37 33 30 27 24 22 20
45 47 49 50 52 53 55 56 57 57 57 58 59 59 60 61 61 62 64 67 68 69 70 69 69 66 63 59 56 54 53 52 50 48 46 42 39 36 33 29 27 25 22
46 48 49 51 53 54 55 55 56 56 56 55 56 58 59 61 62 63 64 66 68 68 70 71 71 71 70 65 60 57 55 53 52 50 49 46 42 39 36 33 29 27 25
46 48 50 52 52 53 54 54 52 51 50 51 51 53 56 58 61 62 63 65 66 66 67 69 72 73 72 71 67 62 58 55 53 52 51 48 45 42 39 36 32 29 26
48 50 51 52 51 52 51 50 48 46 45 44 45 47 49 52 55 58 61 63 63 63 64 65 68 71 73 73 70 67 62 58 56 54 52 51 48 45 42 39 36 32 29
48 50 51 50 49 49 49 47 44 41 38 37 38 39 42 45 49 54 57 59 59 59 59 60 61 65 69 72 72 70 66 63 59 56 54 51 50 48 46 43 39 35 31
48 49 50 49 48 47 46 43 39 36 32 30 29 31 34 37 41 47 51 54 54 54 55 55 55 57 61 67 71 70 68 65 62 59 56 53 52 50 47 44 40 37 33
48 49 49 47 46 45 43 40 37 32 28 24 22 23 26 30 34 40 44 47 49 49 50 50 50 52 54 58 64 68 69 66 61 60 58 55 52 50 48 45 42 39 36
47 47 47 45 44 44 41 38 35 29 24 19 16 16 19 23 28 33 36 40 43 45 46 46 46 47 49 51 56 62 66 68 65 59 57 57 54 51 49 45 42 40 37
46 46 45 43 43 41 40 37 33 28 22 16 11 10 13 17 23 28 31 35 38 40 41 42 43 42 44 47 50 55 60 64 66 61 56 53 52 51 50 47 43 41 38
45 44 43 42 41 39 37 35 32 26 20 15 9 5 7 12 18 23 27 31 34 36 37 39 40 40 40 42 45 48 52 56 60 61 57 51 49 49 49 47 44 41 39
44 43 42 40 39 37 35 33 30 26 20 14 9 4 5 9 13 18 23 27 30 33 34 35 37 37 38 38 39 42 46 49 53 55 56 53 50 47 45 46 44 41 39
43 42 41 39 38 35 33 31 28 25 20 14 8 3 4 8 11 15 19 23 26 29 31 32 34 35 35 35 35 37 40 44 48 51 52 53 51 47 45 45 44 41 39
42 41 40 38 36 34 32 29 26 24 20 15 9 4 3 7 11 14 17 20 24 27 29 30 31 33 34 34 34 34 37 41 45 48 50 50 50 48 46 45 44 42 39
40 40 39 37 35 33 30 28 25 22 19 15 10 6 3 5 9 13 16 19 22 25 27 28 29 31 31 32 33 34 36 40 45 47 48 48 48 48 46 45 43 41 39
39 38 37 36 35 32 29 26 24 21 18 14 10 6 2 3 7 10 13 16 19 22 24 26 27 29 30 31 31 33 35 39 44 47 48 47 47 47 46 44 42 41 39
37 37 36 35 34 32 29 25 23 21 18 14 10 6 3 3 7 10 12 15 17 20 23 25 26 27 28 29 30 32 34 38 44 45 47 49 48 46 45 43 42 40 38
35 35 35 34 34 32 28 25 23 20 18 13 9 5 2 3 6 10 13 15 17 20 22 23 24 25 25 27 28 30 35 39 44 45 46 48 48 45 44 43 41 39 37
33 34 34 34 33 32 29 26 24 21 18 15 10 5 0 3 6 9 12 15 17 20 21 22 23 23 23 25 27 29 33 39 43 44 46 46 46 45 44 42 40 39 37
31 31 32 32 31 31 29 27 25 21 19 17 12 7 4 3 5 7 11 14 16 19 20 20 21 21 21 23 27 30 32 37 41 44 46 44 43 44 42 40 39 38 36
28 29 30 30 30 29 28 27 24 22 20 18 15 11 8 5 5 7 10 13 15 17 18 18 19 20 21 23 25 29 32 37 41 42 42 42 42 41 40 38 37 36 34
25 26 27 27 28 28 27 26 24 23 22 21 20 17 14 11 11 11 11 12 14 16 17 17 18 19 20 21 23 27 31 36 39 38 39 39 39 37 35 34 34 33 32
22 22 24 24 25 25 25 25 24 24 23 22 21 20 18 16 15 15 15 15 15 17 17 17 17 19 20 21 22 24 28 32 36 37 37 37 35 34 33 32 31 30 29
19 19 20 21 22 23 23 22 22 22 22 22 21 20 19 19 18 18 19 18 19 18 19 19 19 21 22 22 24 26 28 30 33 35 34 33 32 30 29 28 27 26 25